Weather in Khasyn

Russia / Magadan District     60°05′14″N   150°53′33″E
temp.,
°C
wind,
m/s
gust,
m/s
humid.,
%
clouds,
%
prec.,
mm/h
press.,
hPa
HPBL,
m
21 january, thu
thu2123:00−25nne33600 0.0 101322
02:00−25nne33540 0.0 101321
05:00−25nne22490 0.0 101220
08:00−25ne22487 0.0 101320
11:00−24ne225135 0.0 101220
14:00−22ne115584 0.0 101220
17:00−24ne225389 0.0 101220
20:00−25ne225076 0.0 101320
22 january, fri
fri2223:00−25ne224978 0.0 101320
02:00−25ne124995 0.0 101320
05:00−25ne224681 0.0 101320
08:00−25nne224541 0.0 101320
11:00−23nne224650 0.0 101220
14:00−20nne125335 0.0 101220
17:00−23nne224745 0.0 101220
20:00−23nne224553 0.0 101220
23 january, sat
sat2323:00−23nne224842 0.0 101220
02:00−24nne235452 0.0 101220
05:00−24nne336358 0.0 101221
08:00−25nne337130 0.0 101321
11:00−24nne337415 0.0 101324
14:00−22nne23800 0.0 101343
17:00−26nne337513 0.0 101422
20:00−27nne33711 0.0 101622
24 january, sun
sun2423:00−27nne336948 0.0 101724
02:00−27nne3374100 0.0 101726
05:00−28nne337797 0.0 101824
08:00−28nne337693 0.0 101922
11:00−27nne337697 0.0 102129
14:00−26nne2378100 0.0 1021120
17:00−28nne3376100 0.0 102222
20:00−28nne3373100 0.0 102425
25 january, mon
mon2523:00−29nne3372100 0.0 102526
02:00−30nne337497 0.0 102525
05:00−30nne337599 0.0 102733
08:00−31nne337398 0.0 102825
11:00−30nne337498 0.0 102847
14:00−28nne347683 0.0 1029127
17:00−32nne447271 0.0 103024
20:00−32nne446918 0.0 103225